[[{"header":{"parameterUnit":"m.s-1","parameterCategory":1,"la1":30.2991,"la2":30.254,"lo1":-89.0895,"lo2":-89.0444,"dy":0.0017,"dx":0.0017,"nx":28,"ny":28,"refTime":"2025-06-08T03:00:00:Z","depth":0,"parameterNumber":2,"parameterNumberName":"U-component_of_WINDS"},"data":[0,0,0,0,0,0,0,0,0,0,0,0,0,0,0,0,0,0,0,0,0,0,0,0,0,0,0,0,0,0,0,0,0,0,0,0,0,0,0,0,0,0,0,0,0,0,0,0,0,0,0,0,0,0,0,0,0,0,4.121,4.1212,0,4.1341,4.1342,4.1344,4.1353,4.1351,4.135,4.1348,4.1483,4.1488,4.1493,0,0,0,0,0,0,0,0,0,0,0,0,0,4.097,4.0974,4.121,4.1212,4.1213,4.134,4.1342,4.1344,4.1353,4.1351,4.1349,4.1348,4.1482,4.1487,4.1493,0,0,0,0,0,0,0,0,0,0,0,0,0,4.1085,4.0976,4.121,4.1233,4.1236,4.134,4.1342,4.1344,4.1353,4.1351,4.1349,4.1347,4.148,4.1487,4.1494,4.1584,0,0,4.1517,4.152,0,0,0,0,0,0,0,0,4.1078,4.1094,4.1228,4.1232,4.1236,4.1328,4.1307,4.1425,4.1354,4.1309,4.1348,4.1346,4.1433,4.1444,4.1474,4.159,4.1596,4.1517,4.1522,4.1525,4.1527,0,0,0,0,0,0,0,4.107,4.1088,4.1262,4.123,4.1235,4.1237,4.1251,4.1329,4.1382,4.1313,4.1314,4.1329,4.1435,4.1467,4.1477,4.1598,4.1517,4.1524,4.1528,4.1531,4.1795,4.1797,0,0,0,0,0,0,4.1058,4.1081,4.1258,4.1266,4.115,4.1244,4.1259,4.1301,4.1381,4.1391,4.1331,4.1329,4.1455,4.1468,4.1482,4.1592,4.1525,4.1532,4.1536,4.1792,4.1795,4.1798,0,0,0,0,0,0,4.1053,4.1073,4.1252,4.1174,4.1197,4.125,4.1297,4.1304,4.1336,4.1395,4.1404,4.1353,4.1454,4.1471,4.1558,4.1597,4.1535,4.1542,4.1789,4.1793,4.1797,4.1813,0,0,0,0,0,0,4.1046,4.1071,4.1105,4.1175,4.1201,4.1326,4.1299,4.1308,4.1348,4.1347,4.1418,4.1428,4.1453,4.1547,4.1566,4.1606,4.1548,4.1786,4.1791,4.1795,4.1809,4.1817,4.1823,0,0,0,0,0,4.1037,4.1105,4.1107,4.1128,4.1245,4.1328,4.1343,4.1371,4.1352,4.1386,4.1424,4.1426,4.159,4.1556,4.1577,4.162,4.1784,4.1789,4.1795,4.1806,4.1815,4.1823,0,0,0,0,0,0,4.1039,4.1114,4.1118,4.121,4.1263,4.133,4.1374,4.138,4.144,4.1436,4.1469,4.1484,4.157,4.1604,4.1565,4.1711,4.1685,4.1695,4.1686,4.1695,4.1702,4.1692,4.1554,0,0,0,0,0,4.105,4.1112,4.1174,4.125,4.1276,4.1321,4.1358,4.1375,4.1431,4.1453,4.1498,4.1552,4.1616,4.1658,4.172,4.1814,4.183,4.1854,4.1861,4.1867,4.1875,4.1928,4.1939,4.1817,4.1817,4.1816,0,0,4.1074,4.1123,4.116,4.1251,4.1294,4.1357,4.1339,4.1407,4.1454,4.1464,4.1548,4.1583,4.1646,4.1737,4.178,4.1768,4.1912,4.1874,4.1878,4.1883,4.1935,4.1946,4.1956,4.1821,4.182,4.1819,0,0,4.1149,4.1193,4.126,4.1304,4.1369,4.1398,4.1414,4.1481,4.1504,4.159,4.1598,4.1655,4.1765,4.181,4.1847,4.194,4.1943,4.196,4.1996,4.2047,4.2057,4.2065,4.2098,4.211,4.1968,4.1968,4.1968,0,4.1171,4.1266,4.1294,4.1362,4.1402,4.1414,4.1483,4.1524,4.1606,4.1634,4.1619,4.1757,4.1801,4.1902,4.1925,4.1955,4.1975,4.1951,4.2053,4.2062,4.207,4.2102,4.2115,4.1969,4.1969,4.1969,4.1969,0,4.1289,4.1354,4.1401,4.148,4.1526,4.1594,4.1633,4.1676,4.1689,4.172,4.1808,4.186,4.1933,4.1959,4.1973,4.2063,4.2054,4.2046,4.202,4.2083,4.2113,4.2126,4.1971,4.1971,4.197,4.197,0,0,4.1367,4.1462,4.1478,4.1514,4.1588,4.1639,4.1708,4.1779,4.1816,4.1872,4.1931,4.2024,4.2017,4.2059,4.2078,4.2123,4.2194,4.211,4.2112,4.2123,4.2296,4.2301,4.2314,4.2197,4.2199,4.2201,4.2291,0,4.145,4.1572,4.1601,4.1705,4.1767,4.178,4.184,4.1892,4.1923,4.198,4.2015,4.208,4.2066,4.2092,4.2137,4.2175,4.2229,4.217,4.2251,4.2254,4.2234,4.233,4.2335,4.2417,4.2303,4.2305,4.2306,0,4.1563,4.1622,4.1733,4.1798,4.1825,4.1878,4.1946,4.2001,4.206,4.208,4.2127,4.2142,4.2215,4.2186,4.2286,4.2245,4.2281,4.2305,4.2309,4.2317,4.2283,4.234,4.2444,4.2456,4.2325,4.2324,4.2322,0,4.1608,4.1716,4.1796,4.1827,4.1905,4.1943,4.1977,4.2034,4.2076,4.2135,4.2162,4.223,4.2267,4.2319,4.2352,4.2328,4.245,4.2424,4.2468,4.2467,4.2492,4.249,4.2602,4.2517,4.2516,4.2516,4.2516,0,4.1697,4.1764,4.1818,4.1867,4.1943,4.1975,4.205,4.2085,4.2136,4.2192,4.2208,4.2261,4.2302,4.236,4.2387,4.2466,4.2483,4.2501,4.2507,4.2499,4.2496,4.2522,4.2516,4.252,4.2519,4.2518,4.2518,0,4.176,4.1799,4.1887,4.1955,4.1973,4.2026,4.2084,4.2133,4.2165,4.2237,4.2255,4.2306,4.2376,4.2414,4.2502,4.252,4.2608,4.2612,4.2588,4.259,4.2632,4.2627,4.2764,4.2783,4.2686,4.2686,4.2687,0,4.1814,4.1866,4.1939,4.1978,4.2013,4.2076,4.2118,4.2153,4.2196,4.2268,4.2308,4.2379,4.2437,4.2549,4.2594,4.2661,4.2666,4.2709,4.2676,4.2666,4.2666,4.2662,4.2667,4.2714,4.2715,4.2716,4.2717,0,4.1905,4.1921,4.1981,4.2048,4.2098,4.2153,4.2207,4.2238,4.2282,4.233,4.2401,4.2447,4.2537,4.2607,4.2678,4.2714,4.2723,4.2727,4.2741,4.2732,4.2716,4.2725,4.2603,4.2723,4.2723,4.2722,4.2722,4.2722,4.1964,4.2011,4.207,4.2137,4.2181,4.2231,4.228,4.2319,4.2379,4.2455,4.2472,4.2547,4.2606,4.2703,4.2741,4.2801,4.2793,4.2813,4.2818,4.2822,4.2823,4.2708,4.2814,4.2814,4.2814,4.2814,4.2814,0,4.2055,4.2094,4.2155,4.223,4.2283,4.2287,4.2347,4.239,4.2457,4.2511,4.2568,4.2651,4.2719,4.277,4.284,4.2878,4.2884,4.2895,4.2892,4.29,4.2827,4.2807,4.2889,4.2889,4.2889,4.2889,4.2889,4.2889,4.2108,4.2188,4.2212,4.2314,4.2352,4.2426,4.246,4.2507,4.255,4.2642,4.2699,4.2731,4.2784,4.2858,4.2922,4.2935,4.2959,4.297,4.2984,4.2914,4.2906,4.2898,4.288,4.2976,4.2976,4.3052,4.3053,4.3054]},{"header":{"parameterUnit":"m.s-1","parameterCategory":1,"la1":30.2991,"la2":30.254,"lo1":-89.0895,"lo2":-89.0444,"dy":0.0017,"dx":0.0017,"nx":28,"ny":28,"refTime":"2025-06-08T03:00:00:Z","depth":0,"parameterNumber":3,"parameterNumberName":"V-component_of_WINDS"},"data":[0,0,0,0,0,0,0,0,0,0,0,0,0,0,0,0,0,0,0,0,0,0,0,0,0,0,0,0,0,0,0,0,0,0,0,0,0,0,0,0,0,0,0,0,0,0,0,0,0,0,0,0,0,0,0,0,0,0,4.6527,4.6528,0,4.6613,4.6614,4.6615,4.6631,4.663,4.663,4.6629,4.6712,4.6714,4.6717,0,0,0,0,0,0,0,0,0,0,0,0,0,4.6372,4.6375,4.6527,4.6528,4.6529,4.6613,4.6614,4.6615,4.6631,4.663,4.663,4.6629,4.6711,4.6714,4.6717,0,0,0,0,0,0,0,0,0,0,0,0,0,4.6447,4.6376,4.6527,4.6547,4.655,4.6613,4.6614,4.6616,4.6631,4.663,4.6629,4.6628,4.671,4.6714,4.6718,4.6764,0,0,4.6731,4.6733,0,0,0,0,0,0,0,0,4.6442,4.6452,4.6543,4.6546,4.6549,4.661,4.659,4.6665,4.6632,4.66,4.6629,4.6628,4.6678,4.6685,4.6703,4.6768,4.6772,4.6731,4.6734,4.6736,4.6737,0,0,0,0,0,0,0,4.6437,4.6449,4.6561,4.6545,4.6548,4.6551,4.656,4.6604,4.6644,4.6603,4.6604,4.6615,4.668,4.6699,4.6705,4.6773,4.6731,4.6735,4.6737,4.6739,4.688,4.6881,0,0,0,0,0,0,4.6429,4.6444,4.6558,4.6564,4.6492,4.6554,4.6565,4.6592,4.6643,4.665,4.6615,4.6615,4.6692,4.67,4.6708,4.6766,4.6736,4.674,4.6742,4.6879,4.688,4.6881,0,0,0,0,0,0,4.6426,4.6439,4.6555,4.6504,4.6519,4.6558,4.6588,4.6594,4.6613,4.6653,4.6659,4.6628,4.6692,4.6702,4.6751,4.6769,4.6741,4.6745,4.6877,4.6879,4.6881,4.6882,0,0,0,0,0,0,4.6421,4.6438,4.6457,4.6505,4.6522,4.6597,4.6589,4.6596,4.6621,4.6622,4.6667,4.6673,4.6692,4.6744,4.6755,4.6774,4.6749,4.6876,4.6878,4.688,4.688,4.6883,4.6886,0,0,0,0,0,4.6416,4.6453,4.6458,4.6472,4.6547,4.6598,4.6608,4.663,4.6623,4.6642,4.6667,4.6672,4.6766,4.6749,4.6761,4.6782,4.6875,4.6877,4.688,4.6879,4.6883,4.6886,0,0,0,0,0,0,4.6404,4.6459,4.6466,4.652,4.6554,4.6601,4.6625,4.6634,4.667,4.6668,4.6693,4.6703,4.675,4.6771,4.6751,4.683,4.6819,4.6825,4.6814,4.6818,4.6821,4.6814,4.6752,0,0,0,0,0,4.6408,4.6447,4.6492,4.6535,4.6553,4.6586,4.6609,4.6624,4.666,4.6674,4.6703,4.6736,4.6773,4.6797,4.6833,4.6883,4.6893,4.6904,4.6907,4.6909,4.6913,4.694,4.6946,4.689,4.689,4.689,0,0,4.6416,4.6451,4.6473,4.6534,4.6562,4.66,4.6598,4.6638,4.6666,4.6679,4.6727,4.675,4.6788,4.6838,4.6861,4.6857,4.693,4.6912,4.6914,4.6917,4.6944,4.6949,4.6954,4.6892,4.6892,4.6891,0,0,4.645,4.6481,4.652,4.6549,4.6593,4.6616,4.6625,4.6671,4.6687,4.6735,4.6746,4.6779,4.6842,4.687,4.6892,4.6937,4.6942,4.6948,4.6963,4.6989,4.6994,4.6998,4.7013,4.7018,4.6952,4.6952,4.6952,0,4.6453,4.6513,4.6539,4.6579,4.6605,4.6621,4.666,4.6686,4.6739,4.6756,4.6751,4.6831,4.6858,4.6914,4.6926,4.6943,4.6954,4.6942,4.6991,4.6996,4.7,4.7015,4.702,4.6952,4.6952,4.6952,4.6952,0,4.6515,4.6556,4.6582,4.6635,4.6664,4.6703,4.6733,4.6759,4.6771,4.6793,4.6842,4.6876,4.6919,4.6934,4.6945,4.6991,4.6987,4.6987,4.6977,4.7005,4.7019,4.7025,4.6953,4.6953,4.6953,4.6952,0,0,4.6543,4.6611,4.662,4.6644,4.6694,4.6725,4.6765,4.681,4.6831,4.6867,4.69,4.6953,4.6953,4.6978,4.6993,4.7017,4.705,4.7013,4.7014,4.7018,4.7102,4.7102,4.7108,4.7054,4.7055,4.7056,4.7098,0,4.6582,4.6656,4.668,4.674,4.6778,4.6794,4.6829,4.6862,4.6884,4.6918,4.6941,4.6979,4.6976,4.6992,4.7016,4.7041,4.7067,4.7038,4.7083,4.7085,4.7073,4.7116,4.7116,4.7154,4.7104,4.7105,4.7106,0,4.6638,4.6677,4.6741,4.6788,4.6804,4.6835,4.6878,4.691,4.6948,4.6962,4.6991,4.7004,4.7045,4.7033,4.7089,4.7069,4.7089,4.7104,4.7106,4.711,4.7097,4.712,4.7166,4.7172,4.7115,4.7115,4.7114,0,4.6651,4.6719,4.6767,4.6787,4.6842,4.6863,4.6887,4.6924,4.695,4.6986,4.7003,4.7043,4.7065,4.7095,4.7118,4.7108,4.7171,4.7162,4.7183,4.7182,4.7195,4.7193,4.7244,4.7209,4.7209,4.7209,4.7209,0,4.6692,4.673,4.6774,4.6803,4.6846,4.6874,4.6915,4.6939,4.6973,4.7006,4.7022,4.7052,4.7081,4.7115,4.7133,4.7176,4.7185,4.7197,4.7201,4.7195,4.7194,4.7208,4.7205,4.721,4.721,4.721,4.7209,0,4.6713,4.6744,4.6797,4.6846,4.6859,4.6888,4.6929,4.6957,4.698,4.7021,4.7033,4.7068,4.7109,4.7135,4.7186,4.7198,4.7245,4.7249,4.7233,4.7234,4.7254,4.7252,4.7315,4.7324,4.7283,4.7284,4.7284,0,4.6737,4.6768,4.682,4.6844,4.6869,4.6907,4.6933,4.6961,4.6988,4.7034,4.7056,4.7098,4.7133,4.7197,4.7226,4.7265,4.7269,4.7289,4.7275,4.7268,4.7269,4.7267,4.7269,4.7291,4.7291,4.7291,4.7292,0,4.6776,4.679,4.6828,4.6872,4.6904,4.6939,4.6974,4.6993,4.7027,4.7055,4.7098,4.7126,4.7179,4.722,4.7262,4.7284,4.7293,4.7296,4.7303,4.7296,4.7286,4.7291,4.7238,4.7294,4.7294,4.7294,4.7293,4.7293,4.6799,4.6827,4.6868,4.691,4.694,4.6973,4.7002,4.703,4.7067,4.7113,4.7127,4.7171,4.7208,4.7266,4.7289,4.7323,4.7321,4.7331,4.7333,4.7335,4.7335,4.7281,4.7331,4.7331,4.7331,4.7331,4.7331,0,4.6838,4.6866,4.6904,4.6954,4.6987,4.6995,4.7035,4.7061,4.7101,4.7136,4.7171,4.7219,4.7259,4.7292,4.7333,4.7354,4.7359,4.7364,4.7362,4.7367,4.7335,4.7325,4.7359,4.7359,4.7359,4.7359,4.7359,4.7359,4.6862,4.6909,4.6928,4.699,4.7018,4.7063,4.7085,4.7115,4.7143,4.7197,4.7231,4.7254,4.7287,4.7331,4.7368,4.7376,4.739,4.7394,4.7403,4.7372,4.7369,4.7366,4.7357,4.7397,4.7397,4.7432,4.7432,4.7433]}]]